Location: Gand�
(15.0971°N, 12.6564°W)
Time: 14:37:22
(UTC+00:00)

Meteor 2-1 Rocket - Pass Details

Date: 07 August 2020
Orbit: 830 x 907 km, 81.3° (Epoch: 19 September)

Event Time Altitude Azimuth Distance (km) Brightness Sun altitude
Rises 06:00:31 0° 190° (S) 3,423 7.1 -8.7°
Reaches altitude 10° 06:02:56 10° 192° (SSW) 2,498 6.4 -8.1°
Maximum altitude 06:08:35 71° 276° (W) 927 4.3 -6.8°
Drops below altitude 10° 06:14:23 10° 360° (N) 2,552 7.0 -5.5°
Sets 06:16:52 0° 2° (N) 3,501 7.7 -4.9°
